Weather History for Chignik, AK

Change the Weather History Date:

Tuesday, December 18, 2012

  Actual Average Record
Temperature  
Mean Temperature 26 °F -  
Max Temperature 37 °F 31 °F 46 °F (2000)
Min Temperature 14 °F 24 °F 14 °F (1997)
Degree Days  
Heating Degree Days 40    
Moisture  
Dew Point 12 °F    
Average Humidity 65    
Maximum Humidity 87    
Minimum Humidity 53    
Precipitation  
Precipitation 0.05 in - - ()
Sea Level Pressure  
Sea Level Pressure 29.58 in    
Wind  
Wind Speed 19 mph (West)    
Max Wind Speed 32 mph    
Max Gust Speed 54 mph    
Visibility 6 miles    
Events      
Averages and records for this station are not official NWS values.
T = Trace of Precipitation, MM = Missing Value Source: NWS Daily Summary

Daily Weather History Graph

Daily Weather History Graph

Search for Another Location

Airport:

Trip Planner

Search our weather history database for the weather conditions in past years. The results will help you decide how hot, cold, wet, or windy it might be!

Date:

Astronomy

Dec. 18, 2012 Rise Set
Actual Time 10:03 AM AKST 4:57 PM AKST
Civil Twilight 9:15 AM AKST 5:45 PM AKST
Nautical Twilight 8:26 AM AKST 6:34 PM AKST
Astronomical Twilight 7:40 AM AKST 7:20 PM AKST
Moon 12:43 PM AKST (12/18) No Moon Set
Length of Visible Light 8h 29m
Length of Day
6h 53m
Waxing Crescent, 36% of the Moon is Illuminated
Dec 18
Waxing Crescent
Dec 19
First Quarter
Dec 28
Full
Jan 4
Last Quarter
Jan 11
New

Hourly Weather History & Observations

Time (AKST) Temp. Windchill Dew Point Humidity Pressure Visibility Wind Dir Wind Speed Gust Speed Precip Events Conditions
12:16 AM 33.8 °F - 30.2 °F 87% 28.86 in 10.0 mi Calm Calm - N/A   Overcast
12:36 AM 35.6 °F 28.6 °F 30.2 °F 81% 28.87 in 10.0 mi WNW 9.2 mph - N/A   Overcast
12:56 AM 37.4 °F 29.8 °F 30.2 °F 75% 28.88 in 10.0 mi West 11.5 mph 17.3 mph N/A   Overcast
1:16 AM 35.6 °F 26.2 °F 30.2 °F 81% 28.89 in 10.0 mi West 15.0 mph 24.2 mph 0.01 in   Overcast
1:36 AM 35.6 °F 24.8 °F 28.4 °F 75% 28.90 in 10.0 mi West 19.6 mph 38.0 mph 0.01 in   Overcast
1:56 AM 35.6 °F 24.5 °F 28.4 °F 75% 28.93 in 10.0 mi West 20.7 mph 26.5 mph 0.01 in   Overcast
2:16 AM 35.6 °F 24.0 °F 28.4 °F 75% 28.95 in 10.0 mi WSW 23.0 mph 29.9 mph N/A   Overcast
2:36 AM 35.6 °F 22.7 °F 28.4 °F 75% 28.96 in 7.0 mi West 28.8 mph 40.3 mph N/A   Overcast
3:16 AM 35.6 °F 22.7 °F 28.4 °F 75% 29.00 in 10.0 mi WSW 28.8 mph 40.3 mph N/A   Overcast
3:36 AM 35.6 °F 23.4 °F 26.6 °F 70% 29.03 in 10.0 mi WSW 25.3 mph 46.0 mph 0.01 in   Overcast
3:56 AM 35.6 °F 24.5 °F 26.6 °F 70% 29.06 in 10.0 mi West 20.7 mph 36.8 mph 0.01 in   Overcast
4:16 AM - - - N/A% 29.08 in 3.0 mi WSW 29.9 mph 44.9 mph 0.03 in   Mostly Cloudy
4:36 AM 33.8 °F 23.5 °F 26.6 °F 75% 29.14 in 2.5 mi West 16.1 mph 36.8 mph 0.03 in   Overcast
4:56 AM 32.0 °F 18.9 °F 26.6 °F 80% 29.16 in 2.5 mi West 24.2 mph 34.5 mph 0.03 in   Overcast
5:16 AM 32.0 °F 20.5 °F 24.8 °F 75% 29.19 in 2.5 mi West 18.4 mph 35.7 mph N/A   Overcast
5:36 AM 30.2 °F 16.5 °F 24.8 °F 80% 29.21 in 3.0 mi WNW 24.2 mph 38.0 mph N/A   Overcast
5:56 AM 30.2 °F 18.1 °F 24.8 °F 80% 29.24 in 2.0 mi West 18.4 mph 36.8 mph N/A   Overcast
6:16 AM 30.2 °F 18.9 °F 23.0 °F 75% 29.28 in 2.5 mi West 16.1 mph 34.5 mph N/A   Overcast
6:36 AM 28.4 °F 15.8 °F 23.0 °F 80% 29.31 in 1.8 mi West 18.4 mph 40.3 mph N/A   Overcast
6:56 AM 28.4 °F 13.0 °F 21.2 °F 74% 29.35 in 1.5 mi WSW 28.8 mph 42.6 mph N/A   Overcast
7:16 AM - - - N/A% 29.40 in 1.0 mi West 28.8 mph 47.2 mph N/A   Overcast
7:36 AM - - - N/A% 29.43 in 0.8 mi West 28.8 mph 46.0 mph N/A   Overcast
7:56 AM 24.8 °F 9.6 °F 17.6 °F 74% 29.46 in 1.0 mi West 23.0 mph 40.3 mph N/A   Overcast
8:16 AM 23.0 °F 8.3 °F 15.8 °F 74% 29.50 in 1.0 mi West 19.6 mph 34.5 mph N/A   Overcast
8:36 AM 21.2 °F 3.5 °F 14.0 °F 74% 29.52 in 1.2 mi West 27.6 mph 47.2 mph N/A   Overcast
8:56 AM 21.2 °F 6.8 °F 12.2 °F 68% 29.54 in 2.0 mi West 17.3 mph 43.7 mph N/A   Overcast
9:16 AM 21.2 °F 7.3 °F 12.2 °F 68% 29.55 in 2.5 mi WNW 16.1 mph 36.8 mph N/A   Overcast
9:36 AM 21.2 °F 6.0 °F 10.4 °F 63% 29.57 in 3.0 mi West 19.6 mph 46.0 mph N/A   Overcast
9:56 AM 21.2 °F 2.4 °F 10.4 °F 63% 29.58 in 1.2 mi West 32.2 mph 46.0 mph N/A   Overcast
10:16 AM 19.4 °F 0.8 °F 12.2 °F 74% 29.62 in 1.0 mi West 28.8 mph 50.6 mph N/A   Overcast
10:36 AM 19.4 °F 2.5 °F 10.4 °F 68% 29.64 in 0.8 mi WNW 23.0 mph 38.0 mph N/A   Overcast
10:56 AM 19.4 °F 0.8 °F 10.4 °F 68% 29.65 in 0.8 mi WNW 28.8 mph 48.3 mph N/A   Overcast
11:16 AM 19.4 °F 0.2 °F 8.6 °F 63% 29.66 in 1.0 mi WNW 31.1 mph 46.0 mph N/A   Overcast
11:36 AM 19.4 °F 0.2 °F 6.8 °F 58% 29.68 in 2.5 mi WNW 31.1 mph 46.0 mph N/A   Overcast
12:16 PM 17.6 °F 0.1 °F 6.8 °F 63% 29.71 in 3.0 mi West 23.0 mph 54.1 mph N/A   Overcast
12:36 PM 17.6 °F -0.6 °F 5.0 °F 58% 29.71 in 5.0 mi NW 25.3 mph 43.7 mph N/A   Overcast
12:56 PM 17.6 °F 3.2 °F 5.0 °F 58% 29.76 in 9.0 mi WNW 15.0 mph 36.8 mph N/A   Overcast
1:16 PM 17.6 °F 0.9 °F 5.0 °F 58% 29.77 in 6.0 mi WNW 20.7 mph 33.4 mph N/A   Overcast
1:36 PM 17.6 °F -0.3 °F 5.0 °F 58% 29.77 in 9.0 mi WNW 24.2 mph 38.0 mph N/A   Overcast
1:56 PM 17.6 °F -0.3 °F 6.8 °F 63% 29.78 in 3.0 mi WNW 24.2 mph 36.8 mph N/A   Overcast
2:16 PM 17.6 °F 0.1 °F 5.0 °F 58% 29.79 in 5.0 mi WNW 23.0 mph 35.7 mph N/A   Overcast
2:36 PM 17.6 °F -1.3 °F 3.2 °F 53% 29.79 in 10.0 mi WNW 27.6 mph 40.3 mph N/A   Overcast
2:56 PM 17.6 °F 2.2 °F 6.8 °F 63% 29.80 in 3.0 mi West 17.3 mph 35.7 mph N/A   Overcast
3:16 PM 17.6 °F -1.3 °F 6.8 °F 63% 29.80 in 5.0 mi West 27.6 mph 34.5 mph N/A   Overcast
3:36 PM 17.6 °F -0.3 °F 3.2 °F 53% 29.81 in 7.0 mi WNW 24.2 mph 43.7 mph N/A   Mostly Cloudy
3:56 PM 17.6 °F 3.2 °F 5.0 °F 58% 29.83 in 9.0 mi West 15.0 mph 41.4 mph N/A   Overcast
4:16 PM 17.6 °F 1.3 °F 3.2 °F 53% 29.82 in 10.0 mi West 19.6 mph 33.4 mph N/A   Overcast
4:36 PM 17.6 °F 1.3 °F 3.2 °F 53% 29.84 in 9.0 mi WNW 19.6 mph 31.1 mph N/A   Overcast
4:56 PM 17.6 °F 2.2 °F 5.0 °F 58% 29.86 in 5.0 mi WNW 17.3 mph 27.6 mph N/A   Overcast
5:16 PM 17.6 °F 0.9 °F 6.8 °F 63% 29.86 in 9.0 mi WNW 20.7 mph 28.8 mph N/A   Overcast
5:36 PM 15.8 °F -0.2 °F 3.2 °F 58% 29.87 in 10.0 mi WNW 17.3 mph 33.4 mph N/A   Overcast
5:56 PM 15.8 °F -0.6 °F 1.4 °F 53% 29.88 in 10.0 mi WNW 18.4 mph 35.7 mph N/A   Overcast
6:16 PM 15.8 °F -2.3 °F 3.2 °F 58% 29.89 in 10.0 mi WNW 23.0 mph 43.7 mph N/A   Overcast
6:36 PM 15.8 °F -0.6 °F 1.4 °F 53% 29.89 in 9.0 mi West 18.4 mph 40.3 mph N/A   Overcast
6:56 PM 15.8 °F -0.6 °F 1.4 °F 53% 29.90 in 9.0 mi WNW 18.4 mph 27.6 mph N/A   Overcast
7:16 PM 15.8 °F 2.7 °F 3.2 °F 58% 29.92 in 5.0 mi WNW 11.5 mph 33.4 mph N/A   Overcast
7:36 PM 15.8 °F -1.5 °F 5.0 °F 62% 29.93 in 5.0 mi WNW 20.7 mph 35.7 mph N/A   Overcast
7:56 PM 15.8 °F -1.5 °F 3.2 °F 58% 29.93 in 7.0 mi West 20.7 mph 39.1 mph N/A   Overcast
8:16 PM 15.8 °F -4.7 °F 3.2 °F 58% 29.94 in 5.0 mi WNW 31.1 mph 39.1 mph N/A   Overcast
8:36 PM 15.8 °F -3.1 °F 3.2 °F 58% 29.94 in 5.0 mi WNW 25.3 mph 46.0 mph N/A   Mostly Cloudy
8:56 PM 15.8 °F -0.6 °F 3.2 °F 58% 29.94 in 5.0 mi West 18.4 mph 47.2 mph N/A   Mostly Cloudy
9:16 PM 14.0 °F -5.8 °F 3.2 °F 62% 29.94 in 7.0 mi WNW 26.5 mph 39.1 mph N/A   Overcast
9:36 PM 14.0 °F -1.4 °F 1.4 °F 57% 29.94 in 7.0 mi West 15.0 mph 27.6 mph N/A   Overcast
9:56 PM 14.0 °F -3.4 °F 1.4 °F 57% 29.96 in 6.0 mi West 19.6 mph 29.9 mph N/A   Overcast
10:16 PM 14.0 °F -3.4 °F -0.4 °F 53% 29.97 in 10.0 mi West 19.6 mph 34.5 mph N/A   Mostly Cloudy
10:36 PM 14.0 °F -2.0 °F 1.4 °F 57% 29.98 in 10.0 mi NW 16.1 mph 26.5 mph N/A   Overcast
10:56 PM 14.0 °F -0.2 °F 1.4 °F 57% 29.99 in 9.0 mi WNW 12.7 mph 28.8 mph N/A   Mostly Cloudy
11:16 PM 14.0 °F -0.8 °F 1.4 °F 57% 29.99 in 5.0 mi West 13.8 mph 18.4 mph N/A   Overcast
11:36 PM 14.0 °F -5.5 °F 3.2 °F 62% 29.99 in 6.0 mi West 25.3 mph 34.5 mph N/A   Overcast
11:56 PM 14.0 °F -3.4 °F 1.4 °F 57% 29.98 in 5.0 mi West 19.6 mph 32.2 mph N/A   Overcast